This is the latest recevied weather packets stored in our database for station/object N4HAC. If no packets are shown the sender has not sent any weather packets the latest 10 day(s).
| Time | Temp. | Humidity | Pressure | Rain* | Wind** | Luminosity | Snow |
|---|---|---|---|---|---|---|---|
| 1777980104 | 12.78° C | 86% | 1007 hPa | 0 mm | - | 113 W/m² | - |
| 1777979803 | 12.78° C | 85% | 1007.1 hPa | 0 mm | - | 79 W/m² | - |
| 1777979499 | 12.78° C | 84% | 1007.2 hPa | 0 mm | - | 45 W/m² | - |
| 1777979195 | 12.78° C | 83% | 1006.8 hPa | 0 mm | - | 44 W/m² | - |
| 1777978893 | 12.78° C | 84% | 1006.8 hPa | 0 mm | - | 58 W/m² | - |
| 1777978589 | 12.22° C | 85% | 1006.6 hPa | 0 mm | - | 48 W/m² | - |
| 1777978285 | 12.22° C | 86% | 1006.7 hPa | 0 mm | - | 35 W/m² | - |
| 1777977982 | 12.22° C | 86% | 1006.5 hPa | 0 mm | - | 28 W/m² | - |
| 1777977680 | 12.22° C | 85% | 1006.5 hPa | 0 mm | - | 21 W/m² | - |
| 1777977376 | 12.22° C | 85% | 1006.4 hPa | 0 mm | - | 16 W/m² | - |
| 1777977073 | 12.22° C | 85% | 1006.3 hPa | 0 mm | - | 13 W/m² | - |
| 1777976771 | 12.22° C | 85% | 1006.3 hPa | 0 mm | - | 9 W/m² | - |
| 1777976468 | 12.22° C | 86% | 1006.1 hPa | 0 mm | - | 6 W/m² | - |
| 1777976167 | 11.67° C | 88% | 1006.3 hPa | 0 mm | - | 4 W/m² | - |
| 1777975862 | 11.67° C | 89% | 1006.2 hPa | 0 mm | - | 2 W/m² | - |
| 1777975559 | 11.11° C | 91% | 1006.2 hPa | 0 mm | - | 1 W/m² | - |
| 1777975256 | 11.11° C | 91% | 1006 hPa | 0 mm | - | 1 W/m² | - |
| 1777974952 | 11.67° C | 89% | 1006.2 hPa | 0 mm | - | 0 W/m² | - |
| 1777974649 | 11.67° C | 88% | 1005.9 hPa | 0 mm | - | 0 W/m² | - |
| 1777974345 | 11.67° C | 88% | 1006.2 hPa | 0 mm | - | 0 W/m² | - |
| 1777974041 | 11.67° C | 89% | 1006.2 hPa | 0 mm | - | 0 W/m² | - |
| 1777973738 | 11.67° C | 91% | 1006.1 hPa | 0 mm | - | 0 W/m² | - |
| 1777973436 | 11.11° C | 92% | 1006 hPa | 0 mm | - | 0 W/m² | - |
| 1777973133 | 10.56° C | 93% | 1006 hPa | 0 mm | - | 0 W/m² | - |
| 1777972831 | 10.56° C | 93% | 1005.9 hPa | 0 mm | - | 0 W/m² | - |
* Rain latest hour (hover to see other rain measurements)
** Current wind speed in m/s (hover to see current wind gust speed)